Hourly Weather Bolshoe Fursovo

Today, 13 July, Monday

Time Temperature Precipitation Wind Pressure Humidity
00:00 +19°C° 0 mm 1 mps 744 mmHg 83%
01:00 +19°C° 0 mm 1 mps 744 mmHg 85%
02:00 +19°C° 0 mm 1 mps 744 mmHg 87%
03:00 +18°C° 0 mm 1 mps 744 mmHg 88%
04:00 +19°C° 0 mm 1 mps 744 mmHg 88%
05:00 +19°C° 0 mm 1 mps 743 mmHg 88%
06:00 +20°C° 0 mm 1 mps 743 mmHg 87%
07:00 +21°C° 0 mm 1 mps 743 mmHg 83%
08:00 +23°C° 0 mm 1 mps 743 mmHg 79%
09:00 +24°C° 0 mm 1 mps 743 mmHg 75%
10:00 +25°C° 0 mm 2 mps 743 mmHg 73%
11:00 +26°C° 0 mm 2 mps 743 mmHg 70%
12:00 +26°C° 0 mm 2 mps 742 mmHg 67%
13:00 +25°C° 0.7 mm 2 mps 742 mmHg 73%
14:00 +24°C° 0.7 mm 2 mps 742 mmHg 79%
15:00 +21°C° 0.7 mm 2 mps 742 mmHg 86%
16:00 +21°C° 0.1 mm 2 mps 742 mmHg 85%
17:00 +23°C° 0.1 mm 2 mps 741 mmHg 83%
18:00 +23°C° 0.1 mm 1 mps 741 mmHg 82%
19:00 +22°C° 0 mm 1 mps 741 mmHg 84%
20:00 +21°C° 0 mm 1 mps 741 mmHg 86%
21:00 +20°C° 0 mm 1 mps 741 mmHg 88%
22:00 +18°C° 0.2 mm 2 mps 741 mmHg 89%
23:00 +18°C° 0.2 mm 2 mps 741 mmHg 91%

Tomorrow, 14 July, Tuesday

Time Temperature Precipitation Wind Pressure Humidity
00:00 +18°C° 0.2 mm 2 mps 741 mmHg 93%
01:00 +18°C° 0.9 mm 3 mps 740 mmHg 94%
02:00 +18°C° 0.9 mm 3 mps 740 mmHg 96%
03:00 +18°C° 0.9 mm 4 mps 740 mmHg 97%
04:00 +18°C° 0.2 mm 4 mps 740 mmHg 96%
05:00 +18°C° 0.2 mm 3 mps 739 mmHg 95%
06:00 +19°C° 0.2 mm 3 mps 739 mmHg 94%
07:00 +19°C° 0 mm 2 mps 739 mmHg 94%
08:00 +19°C° 0 mm 2 mps 739 mmHg 93%
09:00 +21°C° 0 mm 1 mps 739 mmHg 93%
10:00 +20°C° 0.3 mm 2 mps 739 mmHg 93%
11:00 +20°C° 0.3 mm 2 mps 739 mmHg 94%
12:00 +20°C° 0.3 mm 3 mps 739 mmHg 94%
13:00 +20°C° 0.6 mm 3 mps 739 mmHg 94%
14:00 +20°C° 0.6 mm 3 mps 738 mmHg 94%
15:00 +21°C° 0.6 mm 3 mps 738 mmHg 94%
16:00 +20°C° 2.6 mm 2 mps 738 mmHg 95%
17:00 +20°C° 2.6 mm 2 mps 737 mmHg 96%
18:00 +21°C° 2.6 mm 1 mps 737 mmHg 97%
19:00 +20°C° 2 mm 1 mps 736 mmHg 97%
20:00 +20°C° 2 mm 1 mps 736 mmHg 96%
21:00 +19°C° 2 mm 2 mps 735 mmHg 96%
22:00 +18°C° 0 mm 2 mps 735 mmHg 96%
23:00 +18°C° 0 mm 2 mps 735 mmHg 97%

Day after tomorrow, 15 July, Wednesday

Time Temperature Precipitation Wind Pressure Humidity
00:00 +18°C° 0 mm 3 mps 735 mmHg 97%
01:00 +18°C° 0 mm 3 mps 735 mmHg 97%
02:00 +17°C° 0 mm 3 mps 735 mmHg 97%
03:00 +17°C° 0 mm 3 mps 735 mmHg 97%
04:00 +17°C° 0 mm 4 mps 735 mmHg 96%
05:00 +18°C° 0 mm 4 mps 735 mmHg 95%
06:00 +17°C° 0 mm 5 mps 735 mmHg 95%
07:00 +17°C° 0 mm 5 mps 735 mmHg 94%
08:00 +17°C° 0 mm 5 mps 735 mmHg 93%
09:00 +17°C° 0 mm 5 mps 736 mmHg 92%
10:00 +17°C° 0.3 mm 5 mps 736 mmHg 90%
11:00 +19°C° 0.3 mm 5 mps 736 mmHg 89%
12:00 +19°C° 0.3 mm 5 mps 736 mmHg 87%
13:00 +20°C° 1.1 mm 5 mps 736 mmHg 85%
14:00 +20°C° 1.1 mm 5 mps 736 mmHg 83%
15:00 +21°C° 1.1 mm 5 mps 736 mmHg 81%
16:00 +20°C° 1 mm 5 mps 736 mmHg 82%
17:00 +20°C° 1 mm 4 mps 736 mmHg 83%
18:00 +20°C° 1 mm 4 mps 736 mmHg 85%
19:00 +18°C° 0.4 mm 4 mps 736 mmHg 88%
20:00 +17°C° 0.4 mm 4 mps 736 mmHg 92%
21:00 +15°C° 0.4 mm 4 mps 736 mmHg 95%
22:00 +14°C° 0 mm 4 mps 736 mmHg 96%
23:00 +14°C° 0 mm 4 mps 736 mmHg 96%

16 July, Thursday

Time Temperature Precipitation Wind Pressure Humidity
00:00 +14°C° 0 mm 4 mps 736 mmHg 96%
01:00 +14°C° 0.2 mm 4 mps 736 mmHg 96%
02:00 +15°C° 0.2 mm 4 mps 736 mmHg 95%
03:00 +15°C° 0.2 mm 4 mps 737 mmHg 95%
04:00 +15°C° 0 mm 5 mps 737 mmHg 95%
05:00 +15°C° 0 mm 5 mps 737 mmHg 95%
06:00 +15°C° 0 mm 5 mps 737 mmHg 95%
07:00 +15°C° 0.1 mm 5 mps 737 mmHg 94%
08:00 +15°C° 0.1 mm 5 mps 738 mmHg 94%
09:00 +15°C° 0.1 mm 5 mps 738 mmHg 94%
10:00 +15°C° 0.1 mm 5 mps 738 mmHg 93%
11:00 +15°C° 0.1 mm 5 mps 738 mmHg 91%
12:00 +16°C° 0.1 mm 5 mps 739 mmHg 90%
13:00 +16°C° 0.1 mm 6 mps 739 mmHg 89%
14:00 +16°C° 0.1 mm 6 mps 739 mmHg 88%
15:00 +16°C° 0.1 mm 6 mps 739 mmHg 88%
16:00 +16°C° 0.1 mm 6 mps 739 mmHg 87%
17:00 +16°C° 0.1 mm 6 mps 739 mmHg 87%
18:00 +16°C° 0.1 mm 5 mps 739 mmHg 87%
19:00 +15°C° 0 mm 5 mps 740 mmHg 87%
20:00 +15°C° 0 mm 5 mps 740 mmHg 87%
21:00 +15°C° 0 mm 4 mps 740 mmHg 87%
22:00 +14°C° 0 mm 4 mps 740 mmHg 88%
23:00 +14°C° 0 mm 4 mps 740 mmHg 89%

17 July, Friday

Time Temperature Precipitation Wind Pressure Humidity
00:00 +14°C° 0 mm 4 mps 739 mmHg 90%
01:00 +14°C° 0 mm 4 mps 740 mmHg 90%
02:00 +14°C° 0 mm 4 mps 740 mmHg 90%
03:00 +14°C° 0 mm 4 mps 740 mmHg 91%
04:00 +14°C° 0 mm 4 mps 740 mmHg 91%
05:00 +14°C° 0 mm 4 mps 740 mmHg 91%
06:00 +14°C° 0 mm 4 mps 740 mmHg 91%
07:00 +14°C° 0.1 mm 4 mps 740 mmHg 92%
08:00 +14°C° 0.1 mm 5 mps 740 mmHg 92%
09:00 +14°C° 0.1 mm 5 mps 740 mmHg 92%
10:00 +14°C° 0.1 mm 5 mps 740 mmHg 92%
11:00 +15°C° 0.1 mm 5 mps 741 mmHg 91%
12:00 +15°C° 0.1 mm 5 mps 741 mmHg 90%
13:00 +16°C° 0 mm 5 mps 741 mmHg 89%
14:00 +16°C° 0 mm 5 mps 741 mmHg 87%
15:00 +16°C° 0 mm 5 mps 741 mmHg 86%
16:00 +18°C° 0 mm 4 mps 741 mmHg 84%
17:00 +18°C° 0 mm 4 mps 742 mmHg 83%
18:00 +19°C° 0 mm 4 mps 742 mmHg 82%
19:00 +18°C° 0 mm 3 mps 742 mmHg 86%
20:00 +17°C° 0 mm 3 mps 742 mmHg 90%
21:00 +16°C° 0 mm 3 mps 742 mmHg 93%
22:00 +14°C° 0 mm 3 mps 742 mmHg 94%
23:00 +14°C° 0 mm 3 mps 742 mmHg 95%

18 July, Saturday

Time Temperature Precipitation Wind Pressure Humidity
00:00 +13°C° 0 mm 3 mps 743 mmHg 95%
01:00 +13°C° 0 mm 3 mps 743 mmHg 95%
02:00 +13°C° 0 mm 3 mps 743 mmHg 96%
03:00 +13°C° 0 mm 2 mps 743 mmHg 96%
04:00 +14°C° 0 mm 2 mps 743 mmHg 95%
05:00 +14°C° 0 mm 2 mps 743 mmHg 95%
06:00 +14°C° 0 mm 2 mps 744 mmHg 95%
07:00 +16°C° 0 mm 2 mps 744 mmHg 90%
08:00 +17°C° 0 mm 2 mps 744 mmHg 85%
09:00 +19°C° 0 mm 2 mps 744 mmHg 80%
10:00 +20°C° 0 mm 3 mps 744 mmHg 77%
11:00 +21°C° 0 mm 3 mps 744 mmHg 73%
12:00 +22°C° 0 mm 3 mps 744 mmHg 70%
13:00 +22°C° 0 mm 3 mps 744 mmHg 71%
14:00 +22°C° 0 mm 3 mps 744 mmHg 72%
15:00 +23°C° 0 mm 2 mps 744 mmHg 73%
16:00 +23°C° 0 mm 2 mps 744 mmHg 73%
17:00 +23°C° 0 mm 2 mps 744 mmHg 74%
18:00 +23°C° 0 mm 1 mps 744 mmHg 75%
19:00 +21°C° 0 mm 1 mps 744 mmHg 79%
20:00 +20°C° 0 mm 1 mps 744 mmHg 83%
21:00 +17°C° 0 mm 0 mps 744 mmHg 87%
22:00 +18°C° 0 mm 1 mps 744 mmHg 88%
23:00 +18°C° 0 mm 1 mps 744 mmHg 89%
Show more